GW2129 Weather Reports


Display with metric or nautical units.
time (UTC)temp
F
wind
direction
speed
MPH
gust
MPH
rain 1hr
in
rain 24hr
in
rain mn
in
humidity
%
barometer
mb
20260831072255 77 232 1.0 1.0 0.00 0.00 0.00 87 1016.9
20260831071750 77 206 2.0 2.0 0.00 0.00 0.00 87 1017.0
20260831071245 77 310 0.0 1.0 0.00 0.00 0.00 86 1017.0
20260831070744 78 327 0.0 1.0 0.00 0.00 0.00 86 1016.9
20260831070243 78 240 0.0 2.0 0.00 0.00 0.00 86 1017.0
20260831065743 78 250 0.0 2.0 0.00 0.00 0.00 85 1017.2
20260831065241 78 284 0.0 2.0 0.00 0.00 0.00 85 1017.3
20260831064737 78 244 0.0 1.0 0.00 0.00 0.00 85 1017.2
20260831064231 78 277 0.0 1.0 0.00 0.00 0.00 84 1017.1
20260831063727 78 286 0.0 1.0 0.00 0.00 0.00 84 1017.3
20260831063222 79 240 0.0 2.0 0.00 0.00 0.00 83 1017.1
20260831062722 79 250 0.0 1.0 0.00 0.00 0.00 83 1017.0
20260831062217 79 242 0.0 3.0 0.00 0.00 0.00 82 1017.2
20260831061715 79 290 1.0 3.0 0.00 0.00 0.00 82 1017.1
20260831061211 79 219 4.0 4.0 0.00 0.00 0.00 81 1017.0
20260831060707 80 239 3.0 4.0 0.00 0.00 0.00 81 1016.8
20260831060206 80 176 1.0 3.0 0.00 0.00 0.00 81 1017.0
20260831055701 80 108 0.0 3.0 0.00 0.00 0.00 81 1016.9
20260831055156 80 189 2.0 3.0 0.00 0.00 0.00 80 1017.0
20260831054655 80 143 0.0 3.0 0.00 0.00 0.00 80 1017.0
20260831054150 80 135 0.0 4.0 0.00 0.00 0.00 79 1017.2
20260831053644 80 218 0.0 3.0 0.00 0.00 0.00 79 1017.1
20260831053143 80 309 0.0 2.0 0.00 0.00 0.00 78 1017.0
20260831052643 81 322 2.0 4.0 0.00 0.00 0.00 77 1017.0
20260831052142 81 235 2.0 3.0 0.00 0.00 0.00 77 1016.8
20260831051640 81 300 2.0 2.0 0.00 0.00 0.00 76 1016.8
20260831051139 81 281 1.0 3.0 0.00 0.00 0.00 76 1016.6
20260831050633 81 206 2.0 3.0 0.00 0.00 0.00 75 1016.6
20260831050127 82 295 0.0 3.0 0.00 0.00 0.00 74 1016.6
20260831045626 82 158 4.0 4.0 0.00 0.00 0.00 74 1016.7
20260831045121 82 234 2.0 2.0 0.00 0.00 0.00 73 1016.9
20260831044617 82 194 1.0 2.0 0.00 0.00 0.00 72 1016.7
20260831044112 82 131 2.0 3.0 0.00 0.00 0.00 72 1016.7
20260831043608 82 269 0.0 3.0 0.00 0.00 0.00 72 1016.3
20260831043103 83 256 0.0 2.0 0.00 0.00 0.00 71 1016.4
20260831042602 83 82 0.0 2.0 0.00 0.00 0.00 70 1016.4
20260831042057 83 121 3.0 5.0 0.00 0.00 0.00 70 1016.6
20260831041552 84 135 0.0 2.0 0.00 0.00 0.00 70 1016.5
20260831041051 84 137 1.0 5.0 0.00 0.00 0.00 69 1016.5
20260831040545 84 277 0.0 3.0 0.00 0.00 0.00 68 1016.5
20260831040040 84 304 1.0 2.0 0.00 0.00 0.00 68 1016.6
20260831035537 84 125 3.0 3.0 0.00 0.00 0.00 67 1016.4
20260831035033 84 231 0.0 2.0 0.00 0.00 0.00 66 1016.5
20260831034532 85 205 0.0 3.0 0.00 0.00 0.00 66 1016.3
20260831034028 85 183 2.0 4.0 0.00 0.00 0.00 65 1016.2
20260831033524 85 189 1.0 3.0 0.00 0.00 0.00 65 1016.2
20260831033019 86 160 2.0 3.0 0.00 0.00 0.00 64 1016.0
20260831032518 86 34 0.0 4.0 0.00 0.00 0.00 63 1015.8
20260831032014 86 122 0.0 3.0 0.00 0.00 0.00 63 1016.1
20260831031513 86 199 0.0 4.0 0.00 0.00 0.00 62 1015.8
20260831031013 86 147 4.0 7.0 0.00 0.00 0.00 61 1015.8
20260831030512 86 0 0.0 3.0 0.00 0.00 0.00 61 1015.9
20260831030012 87 189 3.0 3.0 0.00 0.00 0.00 61 1015.6
20260831025509 87 137 0.0 2.0 0.00 0.00 0.00 60 1015.6
20260831025005 87 107 0.0 5.0 0.00 0.00 0.00 60 1015.3
20260831024455 88 9 0.0 11.0 0.00 0.00 0.00 59 1015.0
20260831023954 88 73 2.0 4.0 0.00 0.00 0.00 59 1015.1
20260831023452 88 109 4.0 6.0 0.00 0.00 0.00 58 1015.0
20260831022947 88 220 1.0 9.0 0.00 0.00 0.00 58 1014.7
20260831022446 88 142 2.0 10.0 0.00 0.00 0.00 58 1014.7
20260831021941 88 160 2.0 5.0 0.00 0.00 0.00 58 1014.6
20260831021440 88 131 6.0 7.0 0.00 0.00 0.00 59 1014.3
20260831020937 88 139 2.0 3.0 0.00 0.00 0.00 59 1014.5
20260831020436 88 140 2.0 2.0 0.00 0.00 0.00 60 1014.2
20260831015931 88 243 0.0 1.0 0.00 0.00 0.00 60 1014.1
20260831015428 88 287 0.0 3.0 0.00 0.00 0.00 60 1014.2
20260831014922 88 269 0.0 1.0 0.00 0.00 0.00 59 1014.1
20260831014417 88 244 0.0 3.0 0.00 0.00 0.00 59 1014.1
20260831013913 89 291 2.0 2.0 0.00 0.00 0.00 59 1014.2
20260831013408 89 290 2.0 2.0 0.00 0.00 0.00 58 1014.0
20260831012902 89 204 1.0 5.0 0.00 0.00 0.00 57 1014.0
20260831012357 90 286 1.0 4.0 0.00 0.00 0.00 57 1014.2
20260831011852 90 235 1.0 3.0 0.00 0.00 0.00 57 1013.9
20260831011346 90 128 4.0 6.0 0.00 0.00 0.00 56 1013.9
20260831010843 90 241 2.0 3.0 0.00 0.00 0.00 56 1013.9
20260831010342 90 228 0.0 7.0 0.00 0.00 0.00 56 1013.9
20260831005838 91 160 3.0 6.0 0.00 0.00 0.00 55 1013.7
20260831005333 91 81 0.0 5.0 0.00 0.00 0.00 55 1013.5
20260831004828 91 149 2.0 7.0 0.00 0.00 0.00 54 1013.8
20260831004324 91 247 3.0 6.0 0.00 0.00 0.00 53 1013.5
20260831003820 92 177 0.0 5.0 0.00 0.00 0.00 52 1013.3
20260831003316 93 160 3.0 7.0 0.00 0.00 0.00 50 1013.5
20260831002815 93 154 1.0 4.0 0.00 0.00 0.00 46 1013.6
20260831002314 94 188 4.0 5.0 0.00 0.00 0.00 46 1013.3
20260831001810 94 230 0.0 3.0 0.00 0.00 0.00 46 1013.3
20260831001305 95 177 0.0 4.0 0.00 0.00 0.00 45 1013.3
20260831000803 95 88 2.0 5.0 0.00 0.00 0.00 45 1013.1
20260831000303 95 116 2.0 6.0 0.00 0.00 0.00 44 1013.2
20260830235801 95 101 2.0 5.0 0.00 0.00 0.00 44 1013.2
20260830235256 95 194 0.0 2.0 0.00 0.00 0.00 45 1013.2
20260830234751 94 269 0.0 1.0 0.00 0.00 0.00 46 1013.2
20260830234247 94 219 0.0 2.0 0.00 0.00 0.00 46 1013.1
20260830233742 94 215 1.0 3.0 0.00 0.00 0.00 46 1013.3
20260830233238 94 217 0.0 3.0 0.00 0.00 0.00 46 1013.4
20260830232733 94 71 0.0 3.0 0.00 0.00 0.00 45 1013.4
20260830232229 95 117 0.0 2.0 0.00 0.00 0.00 45 1013.3
20260830231725 95 185 1.0 3.0 0.00 0.00 0.00 44 1013.6
20260830231225 96 208 1.0 4.0 0.00 0.00 0.00 43 1013.5
20260830230720 95 155 2.0 3.0 0.00 0.00 0.00 43 1013.4
20260830230215 96 163 3.0 5.0 0.00 0.00 0.00 42 1013.4
20260830225709 96 211 1.0 3.0 0.00 0.00 0.00 41 1013.7
20260830225204 98 204 1.0 3.0 0.00 0.00 0.00 40 1013.6
20260830224702 98 151 2.0 5.0 0.00 0.00 0.00 39 1013.4
20260830224159 99 274 3.0 4.0 0.00 0.00 0.00 39 1013.6
20260830223655 100 206 1.0 2.0 0.00 0.00 0.00 40 1013.5
20260830223150 100 230 2.0 5.0 0.00 0.00 0.00 39 1013.6
20260830222644 99 267 3.0 5.0 0.00 0.00 0.00 41 1013.7
20260830222140 99 256 2.0 3.0 0.00 0.00 0.00 40 1013.7
20260830221636 97 141 1.0 5.0 0.00 0.00 0.00 41 1013.5
20260830221132 97 219 3.0 9.0 0.00 0.00 0.00 42 1013.6
20260830220627 98 177 0.0 3.0 0.00 0.00 0.00 42 1013.6
20260830220126 98 136 1.0 7.0 0.00 0.00 0.00 42 1013.6
20260830215625 99 161 0.0 2.0 0.00 0.00 0.00 42 1013.9
20260830215119 98 230 2.0 5.0 0.00 0.00 0.00 41 1013.7
20260830214614 98 242 1.0 5.0 0.00 0.00 0.00 43 1013.8
20260830214104 99 168 0.0 4.0 0.00 0.00 0.00 42 1013.9
20260830213603 98 130 3.0 3.0 0.00 0.00 0.00 42 1013.9
20260830213059 97 233 0.0 2.0 0.00 0.00 0.00 43 1013.9
20260830212554 100 154 4.0 10.0 0.00 0.00 0.00 41 1014.0
20260830212049 100 179 2.0 4.0 0.00 0.00 0.00 41 1014.1
20260830211544 99 132 3.0 6.0 0.00 0.00 0.00 42 1014.2
20260830211043 97 268 2.0 4.0 0.00 0.00 0.00 41 1014.2
20260830210538 100 102 4.0 4.0 0.00 0.00 0.00 42 1014.4
20260830210032 99 191 2.0 9.0 0.00 0.00 0.00 41 1014.6
20260830205530 100 206 3.0 6.0 0.00 0.00 0.00 40 1014.7
20260830205026 100 294 2.0 3.0 0.00 0.00 0.00 43 1014.9
20260830204525 100 276 3.0 6.0 0.00 0.00 0.00 41 1014.6
20260830204024 99 247 1.0 6.0 0.00 0.00 0.00 43 1014.9
20260830203520 99 209 5.0 5.0 0.00 0.00 0.00 43 1015.1
20260830203010 99 172 3.0 5.0 0.00 0.00 0.00 42 1015.1
20260830202504 99 284 2.0 4.0 0.00 0.00 0.00 44 1015.0
20260830202000 99 267 1.0 4.0 0.00 0.00 0.00 43 1015.3
20260830201459 97 225 4.0 7.0 0.00 0.00 0.00 45 1015.3
20260830200955 94 258 2.0 3.0 0.00 0.00 0.00 49 1015.3
20260830200454 94 122 2.0 3.0 0.00 0.00 0.00 50 1015.3
20260830195954 95 102 4.0 6.0 0.00 0.00 0.00 48 1015.4
20260830195449 96 158 5.0 6.0 0.00 0.00 0.00 47 1015.5
20260830194948 95 105 3.0 5.0 0.00 0.00 0.00 48 1015.6
20260830194447 95 79 2.0 4.0 0.00 0.00 0.00 47 1015.9
20260830193942 95 105 4.0 6.0 0.00 0.00 0.00 48 1015.9
20260830193440 96 66 2.0 5.0 0.00 0.00 0.00 51 1015.8
20260830192936 98 147 2.0 4.0 0.00 0.00 0.00 46 1016.0
20260830192432 97 348 2.0 4.0 0.00 0.00 0.00 48 1016.0
20260830191927 93 187 2.0 4.0 0.00 0.00 0.00 52 1016.2
20260830191426 93 200 2.0 4.0 0.00 0.00 0.00 51 1016.1
20260830190922 94 306 2.0 5.0 0.00 0.00 0.00 49 1016.1
20260830190417 94 183 0.0 7.0 0.00 0.00 0.00 50 1016.3
20260830185916 93 149 2.0 7.0 0.00 0.00 0.00 51 1016.7
20260830185412 95 141 3.0 7.0 0.00 0.00 0.00 50 1016.4
20260830184907 93 301 2.0 4.0 0.00 0.00 0.00 51 1016.6
20260830184406 93 150 5.0 7.0 0.00 0.00 0.00 50 1016.7
20260830183906 92 303 1.0 5.0 0.00 0.00 0.00 54 1016.7
20260830183400 94 302 2.0 5.0 0.00 0.00 0.00 51 1017.0
20260830182855 95 133 2.0 3.0 0.00 0.00 0.00 52 1017.0
20260830182351 95 275 2.0 3.0 0.00 0.00 0.00 54 1017.0
20260830181848 93 314 0.0 2.0 0.00 0.00 0.00 54 1017.1
20260830181343 93 222 3.0 3.0 0.00 0.00 0.00 54 1017.3
20260830180843 92 209 2.0 4.0 0.00 0.00 0.00 55 1017.3
20260830180337 92 215 0.0 6.0 0.00 0.00 0.00 55 1017.6
20260830175836 94 238 3.0 4.0 0.00 0.00 0.00 53 1017.4
20260830175331 92 120 1.0 3.0 0.00 0.00 0.00 58 1017.7
20260830174826 92 310 1.0 2.0 0.00 0.00 0.00 56 1017.8
20260830174321 90 241 3.0 6.0 0.00 0.00 0.00 59 1017.8
20260830173821 92 304 4.0 5.0 0.00 0.00 0.00 58 1017.7
20260830173317 92 220 4.0 5.0 0.00 0.00 0.00 57 1017.8
20260830172813 93 284 2.0 9.0 0.00 0.00 0.00 56 1017.7
20260830172310 91 295 3.0 3.0 0.00 0.00 0.00 60 1017.9
20260830171805 90 221 1.0 4.0 0.00 0.00 0.00 60 1018.0
20260830171300 93 296 0.0 5.0 0.00 0.00 0.00 54 1018.0
20260830170755 93 235 1.0 5.0 0.00 0.00 0.00 57 1018.2
20260830170254 91 229 1.0 6.0 0.00 0.00 0.00 58 1018.2
20260830165753 91 93 2.0 4.0 0.00 0.00 0.00 59 1018.4
20260830165249 91 297 4.0 4.0 0.00 0.00 0.00 58 1018.2
20260830164745 93 201 2.0 5.0 0.00 0.00 0.00 55 1018.2
20260830164241 92 230 3.0 5.0 0.00 0.00 0.00 58 1018.2
20260830163737 91 239 2.0 5.0 0.00 0.00 0.00 58 1018.3
20260830163233 93 259 3.0 4.0 0.00 0.00 0.00 58 1018.3
20260830162727 92 261 3.0 6.0 0.00 0.00 0.00 59 1018.4
20260830162223 91 205 0.0 3.0 0.00 0.00 0.00 58 1018.4
20260830161718 92 228 2.0 6.0 0.00 0.00 0.00 58 1018.1
20260830161212 91 184 3.0 4.0 0.00 0.00 0.00 60 1018.4
20260830160708 91 214 4.0 4.0 0.00 0.00 0.00 61 1018.3
20260830160203 90 293 1.0 5.0 0.00 0.00 0.00 62 1018.5
20260830155700 89 266 3.0 4.0 0.00 0.00 0.00 64 1018.3
20260830155155 89 248 2.0 7.0 0.00 0.00 0.00 65 1018.2
20260830154650 91 237 2.0 3.0 0.00 0.00 0.00 64 1018.5
20260830154146 89 260 3.0 6.0 0.00 0.00 0.00 66 1018.4
20260830153643 90 207 1.0 3.0 0.00 0.00 0.00 65 1018.2
20260830153142 89 255 0.0 4.0 0.00 0.00 0.00 69 1018.2
20260830152641 89 5 0.0 3.0 0.00 0.00 0.00 70 1018.5
20260830152140 88 128 1.0 3.0 0.00 0.00 0.00 70 1018.2
20260830151636 87 125 0.0 3.0 0.00 0.00 0.00 71 1018.3
20260830151135 86 341 3.0 4.0 0.00 0.00 0.00 73 1018.2
20260830150630 87 249 3.0 4.0 0.00 0.00 0.00 71 1018.2
20260830150125 89 190 2.0 3.0 0.00 0.00 0.00 71 1018.3
20260830145624 87 104 3.0 4.0 0.00 0.00 0.00 73 1018.3
20260830145120 87 241 3.0 5.0 0.00 0.00 0.00 74 1018.2
20260830144615 88 180 0.0 5.0 0.00 0.00 0.00 72 1018.0
20260830144111 88 183 4.0 5.0 0.00 0.00 0.00 72 1018.3
20260830143607 88 80 1.0 3.0 0.00 0.00 0.00 72 1018.4
20260830143104 87 331 1.0 4.0 0.00 0.00 0.00 75 1017.9
20260830142600 87 341 2.0 3.0 0.00 0.00 0.00 75 1018.2
20260830142055 86 349 3.0 4.0 0.00 0.00 0.00 77 1018.1
20260830141550 85 328 1.0 5.0 0.00 0.00 0.00 78 1018.3
20260830141044 83 180 0.0 5.0 0.00 0.00 0.00 82 1018.2
20260830140539 83 184 0.0 8.0 0.00 0.00 0.00 83 1018.2
20260830140035 83 309 1.0 2.0 0.00 0.00 0.00 83 1018.0
20260830135530 84 307 1.0 4.0 0.00 0.00 0.00 81 1018.0
20260830135025 84 214 2.0 4.0 0.00 0.00 0.00 80 1017.8
20260830134521 84 296 1.0 2.0 0.00 0.00 0.00 81 1017.7
20260830134016 82 216 1.0 2.0 0.00 0.00 0.00 85 1017.9
20260830133511 82 303 1.0 3.0 0.00 0.00 0.00 85 1017.8
20260830133006 82 213 1.0 3.0 0.00 0.00 0.00 84 1017.9
20260830132457 82 233 0.0 3.0 0.00 0.00 0.00 84 1017.9
20260830131956 82 320 1.0 2.0 0.00 0.00 0.00 86 1017.8
20260830131455 81 101 2.0 2.0 0.00 0.00 0.00 87 1017.8
20260830130950 80 249 0.0 4.0 0.00 0.00 0.00 90 1017.6
20260830130446 79 297 0.0 1.0 0.00 0.00 0.00 93 1017.6
20260830125944 77 232 0.0 1.0 0.00 0.00 0.00 94 1017.7
20260830125440 77 256 0.0 1.0 0.00 0.00 0.00 94 1017.6
20260830124938 77 304 0.0 1.0 0.00 0.00 0.00 94 1017.6
20260830124433 77 222 2.0 2.0 0.00 0.00 0.00 94 1017.7
20260830123930 77 166 0.0 2.0 0.00 0.00 0.00 94 1017.5
20260830123426 77 185 1.0 3.0 0.00 0.00 0.00 94 1017.4
20260830122924 77 210 1.0 2.0 0.00 0.00 0.00 94 1017.5
20260830122423 77 325 0.0 2.0 0.00 0.00 0.00 94 1017.4
20260830121918 77 205 0.0 3.0 0.00 0.00 0.00 94 1017.1
20260830121414 77 154 0.0 2.0 0.00 0.00 0.00 94 1017.3
20260830120908 77 210 0.0 2.0 0.00 0.00 0.00 93 1017.1
20260830120404 77 206 0.0 3.0 0.00 0.00 0.00 93 1017.4
20260830115900 76 232 1.0 2.0 0.00 0.00 0.00 93 1017.2
20260830115356 76 248 1.0 2.0 0.00 0.00 0.00 93 1017.3
20260830114851 77 224 0.0 2.0 0.00 0.00 0.00 92 1017.2
20260830114348 77 294 2.0 2.0 0.00 0.00 0.00 92 1017.3
20260830113842 77 265 2.0 4.0 0.00 0.00 0.00 92 1017.1
20260830113337 77 242 3.0 3.0 0.00 0.00 0.00 92 1017.2
20260830112833 77 199 1.0 2.0 0.00 0.00 0.00 92 1017.2
20260830112328 77 250 0.0 3.0 0.00 0.00 0.00 92 1017.0
20260830111824 77 228 1.0 4.0 0.00 0.00 0.00 92 1017.1
20260830111320 76 217 0.0 2.0 0.00 0.00 0.00 92 1017.2
20260830110819 76 291 0.0 3.0 0.00 0.00 0.00 92 1017.1
20260830110316 76 216 1.0 3.0 0.00 0.00 0.00 92 1017.1
20260830105815 76 207 0.0 3.0 0.00 0.00 0.00 92 1017.1
20260830105312 76 233 0.0 2.0 0.00 0.00 0.00 92 1017.0
20260830104808 76 246 0.0 2.0 0.00 0.00 0.00 91 1016.9
20260830104304 76 249 2.0 3.0 0.00 0.00 0.00 91 1017.1
20260830103802 76 235 2.0 3.0 0.00 0.00 0.00 91 1017.1
20260830103259 76 304 0.0 3.0 0.00 0.00 0.00 91 1017.1
20260830102757 76 218 2.0 4.0 0.00 0.00 0.00 91 1017.2
20260830102252 76 299 0.0 2.0 0.00 0.00 0.00 91 1017.0
20260830101748 75 324 0.0 1.0 0.00 0.00 0.00 91 1017.1
20260830101244 75 261 0.0 2.0 0.00 0.00 0.00 91 1017.2
20260830100742 75 219 0.0 1.0 0.00 0.00 0.00 91 1017.0
20260830100238 75 242 0.0 1.0 0.00 0.00 0.00 91 1017.2
20260830095736 75 333 0.0 0.0 0.00 0.00 0.00 91 1017.2
20260830095233 75 299 0.0 1.0 0.00 0.00 0.00 91 1017.2
20260830094728 75 255 0.0 1.0 0.00 0.00 0.00 90 1017.1
20260830094225 75 228 0.0 1.0 0.00 0.00 0.00 90 1016.9
20260830093719 75 278 2.0 2.0 0.00 0.00 0.00 90 1017.0
20260830093215 75 242 2.0 3.0 0.00 0.00 0.00 90 1017.3
20260830092715 75 256 0.0 1.0 0.00 0.00 0.00 89 1017.2
20260830092212 75 180 0.0 0.0 0.00 0.00 0.00 89 1017.1
20260830091707 75 157 0.0 1.0 0.00 0.00 0.00 89 1017.0
20260830091206 75 257 0.0 2.0 0.00 0.00 0.00 88 1017.2
20260830090701 75 219 0.0 3.0 0.00 0.00 0.00 88 1017.1
20260830090156 75 231 0.0 1.0 0.00 0.00 0.00 88 1017.1
20260830085655 75 235 0.0 1.0 0.00 0.00 0.00 88 1017.1
20260830085152 75 300 1.0 1.0 0.00 0.00 0.00 87 1017.2
20260830084647 75 299 0.0 0.0 0.00 0.00 0.00 87 1017.2
20260830084142 76 197 0.0 1.0 0.00 0.00 0.00 87 1017.2
20260830083637 76 284 1.0 1.0 0.00 0.00 0.00 86 1017.4
20260830083132 76 301 0.0 1.0 0.00 0.00 0.00 86 1017.0
20260830082627 76 284 1.0 1.0 0.00 0.00 0.00 85 1017.4
20260830082123 76 218 0.0 1.0 0.00 0.00 0.00 85 1017.3
20260830081619 76 305 0.0 1.0 0.00 0.00 0.00 85 1017.3
20260830081117 76 173 0.0 2.0 0.00 0.00 0.00 84 1017.1
20260830080612 77 224 0.0 0.0 0.00 0.00 0.00 84 1017.3
20260830080108 77 260 1.0 2.0 0.00 0.00 0.00 84 1017.5
20260830075607 77 293 1.0 2.0 0.00 0.00 0.00 84 1017.1
20260830075103 77 297 1.0 1.0 0.00 0.00 0.00 83 1017.3
20260830074558 77 315 0.0 1.0 0.00 0.00 0.00 83 1017.5
20260830074054 77 226 0.0 1.0 0.00 0.00 0.00 82 1017.6
20260830073550 77 212 0.0 2.0 0.00 0.00 0.00 82 1017.7
20260830073045 77 214 0.0 2.0 0.00 0.00 0.00 82 1017.8